GW5135 Weather Reports


time (UTC)temp
C
wind
direction
speed
KPH
gust
KPH
rain 1hr
cm
rain 24hr
cm
rain mn
cm
humidity
%
barometer
mb
20260510120107 9 84 0.0 0.0 0.00 0.00 0.00 99 1016.8
20260510115604 8 84 0.0 0.0 0.00 0.00 0.00 99 1016.4
20260510115102 8 84 0.0 0.0 0.00 0.00 0.00 99 1016.5
20260510114558 8 84 0.0 0.0 0.00 0.00 0.00 99 1016.2
20260510114054 8 84 0.0 0.0 0.00 0.00 0.00 99 1016.4
20260510113549 8 95 0.0 0.0 0.00 0.00 0.00 99 1016.1
20260510113047 7 100 0.0 0.0 0.00 0.00 0.00 99 1016.3
20260510112543 7 100 0.0 0.0 0.00 0.00 0.00 99 1015.8
20260510112039 7 102 0.0 0.0 0.00 0.00 0.00 99 1016.1
20260510111536 7 139 0.0 0.0 0.00 0.00 0.00 99 1015.6
20260510111032 7 139 0.0 0.0 0.00 0.00 0.00 99 1015.7
20260510110528 7 139 0.0 0.0 0.00 0.00 0.00 99 1015.6
20260510110025 7 139 0.0 0.0 0.00 0.00 0.00 99 1015.6
20260510105520 7 139 0.0 0.0 0.00 0.00 0.00 99 1015.5
20260510105015 7 139 0.0 1.6 0.00 0.00 0.00 99 1015.4
20260510104512 7 138 1.6 1.6 0.00 0.00 0.00 99 1015.3
20260510104008 7 138 0.0 0.0 0.00 0.00 0.00 99 1015.3
20260510103506 7 138 0.0 0.0 0.00 0.00 0.00 99 1015.5
20260510103001 7 138 0.0 0.0 0.00 0.00 0.00 99 1015.2
20260510102457 7 138 0.0 0.0 0.00 0.00 0.00 99 1015.2
20260510101954 7 138 0.0 0.0 0.00 0.00 0.00 99 1014.9
20260510101452 7 138 0.0 1.6 0.00 0.00 0.00 99 1014.8
20260510100950 7 137 0.0 1.6 0.00 0.00 0.00 99 1014.8
20260510100446 7 137 0.0 1.6 0.00 0.00 0.00 99 1014.7
20260510095942 7 130 0.0 0.0 0.00 0.00 0.00 99 1014.7
20260510095438 7 130 0.0 0.0 0.00 0.00 0.00 99 1014.8
20260510094937 7 132 0.0 0.0 0.00 0.00 0.00 99 1014.8
20260510094432 7 131 0.0 0.0 0.00 0.00 0.00 99 1014.5
20260510093928 7 129 0.0 0.0 0.00 0.00 0.00 99 1014.6
20260510093424 7 142 0.0 0.0 0.00 0.00 0.00 99 1014.6
20260510092921 7 142 1.6 3.2 0.00 0.00 0.00 99 1014.5
20260510092419 7 102 1.6 1.6 0.00 0.00 0.00 99 1014.5
20260510091918 7 18 0.0 1.6 0.00 0.00 0.00 99 1014.5
20260510091415 7 113 0.0 0.0 0.00 0.00 0.00 99 1014.2
20260510090912 7 133 0.0 0.0 0.00 0.00 0.00 99 1014.1
20260510090408 7 132 0.0 0.0 0.00 0.00 0.00 99 1014.4
20260510085904 7 133 0.0 0.0 0.00 0.00 0.00 99 1014.3
20260510085359 7 132 0.0 0.0 0.00 0.00 0.00 99 1014.3
20260510084855 7 132 0.0 0.0 0.00 0.00 0.00 99 1014.0
20260510084353 7 131 0.0 0.0 0.00 0.00 0.00 99 1014.1
20260510083849 7 132 1.6 1.6 0.00 0.00 0.00 99 1013.9
20260510083346 7 80 0.0 0.0 0.00 0.00 0.00 99 1014.1
20260510082841 7 80 0.0 0.0 0.00 0.00 0.00 99 1013.8
20260510082339 8 81 0.0 0.0 0.00 0.00 0.00 99 1013.8
20260510081837 8 143 0.0 0.0 0.00 0.00 0.00 99 1014.0
20260510081334 8 143 0.0 0.0 0.00 0.00 0.00 99 1013.9
20260510080830 7 143 0.0 0.0 0.00 0.00 0.00 99 1013.8
20260510080324 8 143 0.0 0.0 0.00 0.00 0.00 99 1013.8
20260510075822 7 143 0.0 0.0 0.00 0.00 0.00 99 1013.6
20260510075319 7 144 0.0 0.0 0.00 0.00 0.00 99 1013.7
20260510074816 7 143 0.0 0.0 0.00 0.00 0.00 99 1013.6
20260510074314 8 143 0.0 0.0 0.00 0.00 0.00 99 1013.7
20260510073809 8 143 0.0 0.0 0.00 0.00 0.00 99 1013.8
20260510073305 8 143 0.0 0.0 0.00 0.00 0.00 99 1013.7
20260510072801 8 144 0.0 0.0 0.00 0.00 0.00 99 1013.7
20260510072258 8 143 0.0 0.0 0.00 0.00 0.00 99 1013.9
20260510071754 8 143 0.0 0.0 0.00 0.00 0.00 99 1013.9
20260510071251 8 144 0.0 0.0 0.00 0.00 0.00 99 1013.9
20260510070750 8 144 0.0 0.0 0.00 0.00 0.00 99 1013.9
20260510070247 8 144 0.0 0.0 0.00 0.00 0.00 99 1014.0
20260510065746 8 144 0.0 0.0 0.00 0.00 0.00 99 1014.0
20260510065243 8 144 0.0 0.0 0.00 0.00 0.00 99 1013.9
20260510064739 8 144 0.0 0.0 0.00 0.00 0.00 99 1013.9
20260510064238 8 144 0.0 0.0 0.00 0.00 0.00 99 1014.0
20260510063733 8 144 0.0 0.0 0.00 0.00 0.00 99 1013.9
20260510063230 8 144 0.0 0.0 0.00 0.00 0.00 99 1013.9
20260510062727 8 144 0.0 0.0 0.00 0.00 0.00 99 1013.8
20260510062223 8 144 0.0 0.0 0.00 0.00 0.00 99 1014.2
20260510061718 8 144 0.0 0.0 0.00 0.00 0.00 99 1013.9
20260510061216 8 144 0.0 0.0 0.00 0.00 0.00 99 1014.0
20260510060712 8 144 0.0 0.0 0.00 0.00 0.00 99 1014.0
20260510060208 8 144 0.0 0.0 0.00 0.00 0.00 99 1014.0
20260510055705 8 143 0.0 1.6 0.00 0.00 0.00 99 1014.2
20260510055203 9 144 0.0 0.0 0.00 0.00 0.00 99 1014.3
20260510054658 8 144 0.0 0.0 0.00 0.00 0.00 99 1014.0
20260510054154 8 144 0.0 0.0 0.00 0.00 0.00 99 1014.0
20260510053653 8 144 0.0 0.0 0.00 0.00 0.00 99 1014.0
20260510053150 8 144 0.0 0.0 0.00 0.00 0.00 99 1014.0
20260510052646 8 144 0.0 0.0 0.00 0.00 0.00 99 1014.3
20260510052142 9 144 0.0 0.0 0.00 0.00 0.00 99 1014.2
20260510051638 9 144 0.0 0.0 0.00 0.00 0.00 99 1014.3
20260510051135 9 144 0.0 0.0 0.00 0.00 0.00 99 1014.5
20260510050632 9 144 0.0 0.0 0.00 0.00 0.00 99 1014.5
20260510050129 9 144 0.0 0.0 0.00 0.00 0.00 99 1014.5
20260510045626 9 144 0.0 0.0 0.00 0.00 0.00 99 1014.4
20260510045122 9 144 0.0 0.0 0.00 0.00 0.00 99 1014.3
20260510044619 10 144 0.0 0.0 0.00 0.00 0.00 99 1014.3
20260510044116 10 144 0.0 0.0 0.00 0.00 0.00 99 1014.3
20260510043612 10 144 0.0 0.0 0.00 0.00 0.00 99 1014.2
20260510043108 10 144 0.0 0.0 0.00 0.00 0.00 99 1014.2
20260510042607 10 144 0.0 0.0 0.00 0.00 0.00 99 1014.3
20260510042102 10 144 0.0 0.0 0.00 0.00 0.00 99 1014.2
20260510041600 10 144 0.0 0.0 0.00 0.00 0.00 98 1014.2
20260510041057 10 144 0.0 0.0 0.00 0.00 0.00 98 1014.1
20260510040553 10 144 0.0 0.0 0.00 0.00 0.00 98 1014.0
20260510040049 10 144 0.0 0.0 0.00 0.00 0.00 98 1014.1
20260510035546 10 144 0.0 1.6 0.00 0.00 0.00 98 1014.1
20260510035045 10 144 0.0 1.6 0.00 0.00 0.00 98 1014.0
20260510034544 10 144 1.6 1.6 0.00 0.00 0.00 98 1014.0
20260510034041 10 144 0.0 0.0 0.00 0.00 0.00 98 1013.9
20260510033536 10 144 0.0 0.0 0.00 0.00 0.00 98 1014.0
20260510033035 10 144 0.0 0.0 0.00 0.00 0.00 98 1013.9
20260510032531 10 144 0.0 0.0 0.00 0.00 0.00 98 1013.9
20260510032026 10 144 0.0 0.0 0.00 0.00 0.00 97 1013.5
20260510031521 10 144 0.0 0.0 0.00 0.00 0.00 97 1013.5
20260510031017 10 144 0.0 0.0 0.00 0.00 0.00 97 1013.6
20260510030513 10 144 0.0 0.0 0.00 0.00 0.00 97 1013.6
20260510030011 11 144 0.0 0.0 0.00 0.00 0.00 97 1013.7
20260510025507 11 144 0.0 1.6 0.00 0.00 0.00 97 1013.7
20260510025006 11 144 0.0 0.0 0.00 0.00 0.00 96 1013.5
20260510024502 11 144 0.0 1.6 0.00 0.00 0.00 96 1013.5
20260510023958 11 144 0.0 0.0 0.00 0.00 0.00 96 1013.4
20260510023454 11 144 0.0 0.0 0.00 0.00 0.00 95 1013.3
20260510022951 11 144 0.0 1.6 0.00 0.00 0.00 95 1013.2
20260510022450 11 144 0.0 1.6 0.00 0.00 0.00 96 1013.4
20260510021949 11 144 0.0 0.0 0.00 0.00 0.00 95 1013.2
20260510021447 11 144 0.0 0.0 0.00 0.00 0.00 95 1013.2
20260510020944 11 144 0.0 0.0 0.00 0.00 0.00 95 1013.1
20260510020438 11 144 0.0 0.0 0.00 0.00 0.00 95 1013.0
20260510015934 11 144 0.0 0.0 0.00 0.00 0.00 94 1012.8
20260510015430 12 144 0.0 0.0 0.00 0.00 0.00 94 1012.8
20260510014925 12 144 0.0 0.0 0.00 0.00 0.00 94 1012.7
20260510014423 12 144 0.0 0.0 0.00 0.00 0.00 93 1012.9
20260510013919 12 144 0.0 0.0 0.00 0.00 0.00 93 1012.6
20260510013414 12 144 0.0 0.0 0.00 0.00 0.00 93 1012.5
20260510012910 12 144 0.0 0.0 0.00 0.00 0.00 92 1012.6
20260510012405 12 144 0.0 1.6 0.00 0.00 0.00 92 1012.5
20260510011900 13 144 0.0 0.0 0.00 0.00 0.00 91 1012.5
20260510011355 13 144 0.0 0.0 0.00 0.00 0.00 90 1012.2
20260510010852 13 144 0.0 0.0 0.00 0.00 0.00 89 1012.2
20260510010349 13 144 0.0 0.0 0.00 0.00 0.00 89 1012.4
20260510005846 13 144 0.0 0.0 0.00 0.00 0.00 88 1012.2
20260510005342 14 144 0.0 0.0 0.00 0.00 0.00 87 1012.0
20260510004840 14 144 0.0 0.0 0.00 0.00 0.00 86 1012.0
20260510004337 14 144 0.0 0.0 0.00 0.00 0.00 84 1011.8
20260510003835 15 144 0.0 1.6 0.00 0.00 0.00 83 1011.9
20260510003332 15 144 0.0 0.0 0.00 0.00 0.00 83 1011.6
20260510002830 15 144 1.6 3.2 0.00 0.00 0.00 83 1011.3
20260510002327 15 334 0.0 1.6 0.00 0.00 0.00 80 1011.6
20260510001824 16 339 0.0 0.0 0.00 0.00 0.00 79 1011.2
20260510001322 16 339 0.0 0.0 0.00 0.00 0.00 79 1011.4
20260510000818 16 339 0.0 0.0 0.00 0.00 0.00 76 1011.2
20260510000318 17 338 0.0 1.6 0.00 0.00 0.00 74 1011.3
20260509235813 17 22 1.6 1.6 0.00 0.00 0.00 72 1011.1
20260509235309 18 28 1.6 1.6 0.00 0.00 0.00 69 1011.3
20260509234805 19 29 1.6 3.2 0.00 0.00 0.00 66 1011.0
20260509234302 19 45 3.2 9.7 0.00 0.00 0.00 60 1011.0
20260509233800 19 44 3.2 4.8 0.00 0.00 0.00 64 1011.2
20260509233257 20 344 1.6 3.2 0.00 0.00 0.00 65 1011.2
20260509232753 20 257 0.0 1.6 0.00 0.00 0.00 60 1011.1
20260509232251 20 294 0.0 4.8 0.00 0.00 0.00 57 1010.9
20260509231747 20 173 0.0 0.0 0.00 0.00 0.00 58 1010.8
20260509231244 21 211 1.6 3.2 0.00 0.00 0.00 57 1010.9
20260509230741 21 285 1.6 3.2 0.00 0.00 0.00 57 1010.9
20260509230238 21 338 0.0 3.2 0.00 0.00 0.00 57 1010.9
20260509225733 21 121 6.4 6.4 0.00 0.00 0.00 55 1011.0
20260509225230 21 85 1.6 12.9 0.00 0.00 0.00 55 1011.0
20260509224725 21 114 1.6 1.6 0.00 0.00 0.00 57 1010.9
20260509224223 20 16 3.2 3.2 0.00 0.00 0.00 56 1011.0
20260509223719 20 14 1.6 4.8 0.00 0.00 0.00 58 1011.2
20260509223217 20 250 0.0 3.2 0.00 0.00 0.00 55 1011.2
20260509222713 20 279 1.6 6.4 0.00 0.00 0.00 57 1011.3
20260509222209 20 270 3.2 11.3 0.00 0.00 0.00 56 1011.3
20260509221705 20 249 3.2 4.8 0.00 0.00 0.00 58 1011.3
20260509221201 20 147 3.2 11.3 0.00 0.00 0.00 56 1011.2
20260509220657 20 17 3.2 4.8 0.00 0.00 0.00 59 1011.3
20260509220153 20 150 6.4 6.4 0.00 0.00 0.00 57 1011.4
20260509215649 21 243 3.2 6.4 0.00 0.00 0.00 56 1011.2
20260509215146 21 126 8.0 16.1 0.00 0.00 0.00 54 1011.3
20260509214643 21 308 6.4 6.4 0.00 0.00 0.00 56 1011.3
20260509214140 21 49 4.8 9.7 0.00 0.00 0.00 54 1011.4
20260509213637 21 246 0.0 3.2 0.00 0.00 0.00 55 1011.2
20260509213133 21 245 0.0 0.0 0.00 0.00 0.00 56 1011.3
20260509212630 20 139 3.2 4.8 0.00 0.00 0.00 55 1011.3
20260509212127 20 276 0.0 3.2 0.00 0.00 0.00 57 1011.2
20260509211623 20 331 1.6 3.2 0.00 0.00 0.00 55 1011.3
20260509211120 20 226 3.2 4.8 0.00 0.00 0.00 57 1011.2
20260509210616 21 268 3.2 3.2 0.00 0.00 0.00 57 1011.2
20260509210114 20 286 8.0 11.3 0.00 0.00 0.00 55 1011.2
20260509205608 21 287 3.2 3.2 0.00 0.00 0.00 57 1011.6
20260509205103 21 287 0.0 1.6 0.00 0.00 0.00 56 1011.1
20260509204559 20 33 1.6 3.2 0.00 0.00 0.00 56 1011.4
20260509204056 20 130 1.6 3.2 0.00 0.00 0.00 55 1011.6
20260509203552 20 128 1.6 3.2 0.00 0.00 0.00 56 1011.2
20260509203051 20 95 0.0 1.6 0.00 0.00 0.00 54 1011.2
20260509202550 20 173 8.0 9.7 0.00 0.00 0.00 55 1011.1
20260509202046 20 5 0.0 4.8 0.00 0.00 0.00 54 1011.1
20260509201541 20 255 3.2 3.2 0.00 0.00 0.00 56 1011.1
20260509201040 20 36 3.2 6.4 0.00 0.00 0.00 53 1011.0
20260509200538 20 301 0.0 4.8 0.00 0.00 0.00 54 1011.1
20260509200036 20 244 0.0 3.2 0.00 0.00 0.00 55 1011.3
20260509195531 20 132 1.6 6.4 0.00 0.00 0.00 53 1011.2
20260509195031 20 286 1.6 1.6 0.00 0.00 0.00 57 1011.3
20260509194526 20 341 0.0 14.5 0.00 0.00 0.00 56 1011.2
20260509194024 20 310 4.8 11.3 0.00 0.00 0.00 56 1011.7
20260509193524 20 310 3.2 4.8 0.00 0.00 0.00 59 1011.6
20260509193022 21 289 4.8 6.4 0.00 0.00 0.00 54 1011.3
20260509192517 21 148 1.6 4.8 0.00 0.00 0.00 53 1011.3
20260509192013 21 282 4.8 6.4 0.00 0.00 0.00 55 1011.4
20260509191508 20 320 3.2 6.4 0.00 0.00 0.00 59 1011.3
20260509191004 20 143 11.3 12.9 0.00 0.00 0.00 57 1011.7
20260509190500 20 169 12.9 16.1 0.00 0.00 0.00 57 1011.4
20260509185958 21 82 1.6 4.8 0.00 0.00 0.00 56 1011.4
20260509185455 20 25 0.0 6.4 0.00 0.00 0.00 59 1011.8
20260509184952 20 292 1.6 6.4 0.00 0.00 0.00 58 1011.4
20260509184451 20 134 4.8 4.8 0.00 0.00 0.00 59 1011.4
20260509183947 19 287 0.0 6.4 0.00 0.00 0.00 63 1011.7
20260509183447 19 274 3.2 6.4 0.00 0.00 0.00 60 1011.6
20260509182943 20 323 3.2 4.8 0.00 0.00 0.00 56 1011.6
20260509182440 20 132 1.6 3.2 0.00 0.00 0.00 57 1011.6
20260509181937 20 2 6.4 9.7 0.00 0.00 0.00 61 1011.7
20260509181435 20 355 3.2 6.4 0.00 0.00 0.00 61 1011.7
20260509180932 19 85 0.0 6.4 0.00 0.00 0.00 60 1011.8
20260509180427 19 148 9.7 12.9 0.00 0.00 0.00 59 1011.7
20260509175925 18 31 0.0 9.7 0.00 0.00 0.00 62 1011.6
20260509175421 19 166 3.2 11.3 0.00 0.00 0.00 58 1011.6
20260509174918 19 164 1.6 3.2 0.00 0.00 0.00 59 1011.9
20260509174414 18 332 1.6 9.7 0.00 0.00 0.00 61 1012.0
20260509173910 18 93 1.6 9.7 0.00 0.00 0.00 59 1011.7
20260509173409 19 159 3.2 4.8 0.00 0.00 0.00 60 1011.9
20260509172906 18 97 9.7 12.9 0.00 0.00 0.00 57 1012.0
20260509172403 18 346 1.6 9.7 0.00 0.00 0.00 58 1012.0
20260509171859 18 290 1.6 3.2 0.00 0.00 0.00 59 1012.0
20260509171355 18 153 0.0 4.8 0.00 0.00 0.00 58 1012.3
20260509170851 18 263 3.2 4.8 0.00 0.00 0.00 59 1012.1
20260509170347 18 326 9.7 11.3 0.00 0.00 0.00 58 1012.3
20260509165848 18 306 3.2 4.8 0.00 0.00 0.00 58 1012.3
20260509165342 18 311 1.6 4.8 0.00 0.00 0.00 57 1012.2
20260509164838 18 325 0.0 1.6 0.00 0.00 0.00 57 1012.4
20260509164335 18 164 3.2 4.8 0.00 0.00 0.00 57 1012.4
20260509163831 18 92 4.8 6.4 0.00 0.00 0.00 59 1012.3
20260509163328 18 71 3.2 12.9 0.00 0.00 0.00 53 1012.4
20260509162828 18 147 6.4 9.7 0.00 0.00 0.00 55 1012.4
20260509162325 18 138 9.7 14.5 0.00 0.00 0.00 58 1012.2
20260509161822 18 135 0.0 12.9 0.00 0.00 0.00 51 1012.4
20260509161319 18 30 0.0 4.8 0.00 0.00 0.00 54 1012.0
20260509160814 18 276 3.2 6.4 0.00 0.00 0.00 55 1012.1
20260509160310 18 303 3.2 9.7 0.00 0.00 0.00 58 1012.3
20260509155806 18 300 1.6 3.2 0.00 0.00 0.00 57 1012.3
20260509155306 17 292 3.2 3.2 0.00 0.00 0.00 58 1012.3
20260509154758 17 335 6.4 6.4 0.00 0.00 0.00 55 1012.5
20260509154256 17 86 0.0 0.0 0.00 0.00 0.00 56 1012.3
20260509153753 17 256 0.0 1.6 0.00 0.00 0.00 60 1012.2
20260509153248 17 111 0.0 3.2 0.00 0.00 0.00 57 1012.1
20260509152745 17 313 3.2 4.8 0.00 0.00 0.00 60 1012.3
20260509152242 16 76 0.0 4.8 0.00 0.00 0.00 55 1012.4
20260509151739 16 77 1.6 3.2 0.00 0.00 0.00 59 1012.4
20260509151235 16 179 0.0 1.6 0.00 0.00 0.00 55 1012.5
20260509150734 16 124 1.6 4.8 0.00 0.00 0.00 58 1012.4
20260509150231 16 98 1.6 1.6 0.00 0.00 0.00 75 1012.1
20260509145729 16 100 1.6 1.6 0.00 0.00 0.00 74 1012.3
20260509145228 16 101 0.0 0.0 0.00 0.00 0.00 75 1012.3
20260509144725 15 101 0.0 1.6 0.00 0.00 0.00 73 1012.5
20260509144222 15 101 1.6 1.6 0.00 0.00 0.00 74 1012.6
20260509143719 15 102 0.0 1.6 0.00 0.00 0.00 70 1012.6
20260509143217 15 103 1.6 1.6 0.00 0.00 0.00 74 1012.7
20260509142712 16 106 0.0 1.6 0.00 0.00 0.00 71 1012.7
20260509142209 16 107 0.0 0.0 0.00 0.00 0.00 69 1012.5
20260509141704 17 107 0.0 1.6 0.00 0.00 0.00 65 1012.3
20260509141202 16 111 0.0 1.6 0.00 0.00 0.00 55 1012.5
20260509140658 16 191 1.6 3.2 0.00 0.00 0.00 58 1012.4
20260509140156 16 167 1.6 4.8 0.00 0.00 0.00 58 1012.3
20260509135653 16 197 3.2 3.2 0.00 0.00 0.00 62 1012.3
20260509135151 17 167 4.8 9.7 0.00 0.00 0.00 63 1011.9
20260509134647 16 176 3.2 4.8 0.00 0.00 0.00 64 1012.3
20260509134145 16 154 0.0 3.2 0.00 0.00 0.00 65 1012.5
20260509133642 17 144 1.6 1.6 0.00 0.00 0.00 64 1012.4
20260509133139 16 122 0.0 1.6 0.00 0.00 0.00 71 1012.3
20260509132637 15 106 0.0 0.0 0.00 0.00 0.00 73 1012.5
20260509132136 15 121 0.0 1.6 0.00 0.00 0.00 74 1012.5
20260509131631 14 144 0.0 0.0 0.00 0.00 0.00 76 1012.4
20260509131128 14 152 1.6 1.6 0.00 0.00 0.00 74 1012.4
20260509130624 14 174 0.0 0.0 0.00 0.00 0.00 79 1012.5
20260509130121 13 141 0.0 0.0 0.00 0.00 0.00 82 1012.8
20260509125617 13 236 0.0 0.0 0.00 0.00 0.00 83 1012.6
20260509125114 13 243 0.0 0.0 0.00 0.00 0.00 84 1012.9
20260509124610 12 242 0.0 0.0 0.00 0.00 0.00 86 1012.9
20260509124108 12 179 0.0 0.0 0.00 0.00 0.00 88 1012.9
20260509123606 12 168 0.0 0.0 0.00 0.00 0.00 88 1012.9
20260509123102 12 168 0.0 0.0 0.00 0.00 0.00 90 1012.8
20260509122558 11 167 0.0 0.0 0.00 0.00 0.00 90 1012.8
20260509122056 11 166 0.0 0.0 0.00 0.00 0.00 90 1012.6
20260509121552 11 183 0.0 0.0 0.00 0.00 0.00 91 1012.8
20260509121049 11 182 0.0 0.0 0.00 0.00 0.00 91 1012.8
20260509120548 11 182 0.0 0.0 0.00 0.00 0.00 92 1012.8